Location: Burland Observatory
(39.4088°N, 105.4217°W)
Time: 03:41:11
(UTC-07:00)

Altair - All Passes

Search period start: 12 December 2019 00:00
Search period end: 22 December 2019 00:00
Orbit: 1502 x 1682 km, 47.2° (Epoch: 12 December)

Date Brightness Start Highest point End Pass type
(mag) Time Alt. Az. Time Alt. Az. Time Alt. Az.
12 Dec - 01:32:44 10° WNW 01:42:01 73° NNE 01:51:10 10° ESE visible
12 Dec - 03:37:47 10° WNW 03:46:23 47° SW 03:55:02 10° SSE visible
12 Dec - 18:52:12 10° SSW 19:01:05 41° SE 19:09:40 10° ENE visible
12 Dec - 20:55:43 10° WSW 21:05:22 80° NNW 21:14:43 10° ENE visible
12 Dec - 23:01:50 10° W 23:11:01 53° N 23:19:58 10° ENE night (unlit)
13 Dec - 01:07:32 10° WNW 01:16:49 70° NNE 01:25:57 10° ESE visible
13 Dec - 03:12:33 10° WNW 03:21:18 51° SW 03:30:04 10° SSE visible
13 Dec - 05:21:48 10° WSW 05:24:19 11° WSW 05:26:51 10° SW visible
13 Dec - 18:27:17 10° SSW 18:35:59 38° SE 18:44:24 10° ENE visible
13 Dec - 20:30:29 10° WSW 20:40:11 84° NNW 20:49:33 10° ENE visible
13 Dec - 22:36:31 10° W 22:45:46 54° N 22:54:45 10° ENE visible
14 Dec - 00:42:20 10° WNW 00:51:36 67° NNE 01:00:44 10° ESE night (unlit)
14 Dec - 02:47:20 10° WNW 02:56:13 55° SW 03:05:04 10° SSE visible
14 Dec - 04:55:29 10° W 04:59:19 13° WSW 05:03:10 10° SSW visible
14 Dec - 18:02:24 10° SSW 18:10:54 35° SE 18:19:08 10° ENE visible
14 Dec - 20:05:15 10° WSW 20:15:00 88° NNW 20:24:24 10° ENE visible
14 Dec - 22:11:13 10° W 22:20:30 54° N 22:29:31 10° ENE visible
15 Dec - 00:17:07 10° WNW 00:26:24 65° NNE 00:35:29 10° E night (unlit)
15 Dec - 02:22:08 10° WNW 02:31:07 60° SW 02:40:03 10° SE visible
15 Dec - 04:29:34 10° W 04:34:18 15° SW 04:39:04 10° SSW visible
15 Dec - 17:37:33 10° S 17:45:49 32° SE 17:53:50 10° ENE visible
15 Dec - 19:40:02 10° WSW 19:49:49 88° SSE 19:59:14 10° ENE visible
15 Dec - 21:45:54 10° W 21:55:14 55° N 22:04:18 10° ENE visible
15 Dec - 23:51:53 10° WNW 00:01:10 62° NNE 00:10:15 10° E night (unlit)
16 Dec - 01:56:56 10° WNW 02:06:01 64° SW 02:15:01 10° SE visible
16 Dec - 04:03:52 10° W 04:09:18 17° SW 04:14:45 10° SSW visible
16 Dec - 17:12:44 10° S 17:20:45 29° SE 17:28:30 10° ENE visible
16 Dec - 19:14:50 10° SW 19:24:38 84° SSE 19:34:04 10° ENE visible
16 Dec - 21:20:35 10° W 21:29:59 56° N 21:39:05 10° ENE visible
16 Dec - 23:26:39 10° WNW 23:35:57 60° NNE 23:45:00 10° E night (unlit)
17 Dec - 01:31:44 10° WNW 01:40:54 69° SW 01:49:57 10° SE night (unlit)
17 Dec - 03:38:16 10° W 03:44:17 20° SW 03:50:19 10° SSW visible
17 Dec - 16:48:00 10° S 16:55:40 26° SE 17:03:08 10° ENE daylight
17 Dec - 18:49:39 10° SW 18:59:28 79° SE 19:08:54 10° ENE visible
17 Dec - 20:55:16 10° W 21:04:44 58° NNW 21:13:52 10° ENE visible
17 Dec - 23:01:24 10° WNW 23:10:42 59° NNE 23:19:45 10° E visible
18 Dec - 01:06:32 10° WNW 01:15:47 74° SW 01:24:53 10° SE night (unlit)
18 Dec - 03:12:45 10° W 03:19:16 22° SW 03:25:46 10° S visible
18 Dec - 16:23:18 10° S 16:30:36 24° SE 16:37:43 10° E daylight
18 Dec - 18:24:30 10° SW 18:34:18 75° SE 18:43:45 10° ENE visible
18 Dec - 20:29:56 10° W 20:39:28 59° NNW 20:48:40 10° ENE visible
18 Dec - 22:36:09 10° WNW 22:45:28 57° NNE 22:54:30 10° E visible
19 Dec - 00:41:20 10° WNW 00:50:39 79° SW 00:59:47 10° SE night (unlit)
19 Dec - 02:47:18 10° WNW 02:54:14 25° SW 03:01:09 10° S visible
19 Dec - 15:58:40 10° S 16:05:33 21° SE 16:12:14 10° E daylight
19 Dec - 17:59:21 10° SW 18:09:08 70° SE 18:18:35 10° ENE visible
19 Dec - 20:04:37 10° W 20:14:13 61° NNW 20:23:29 10° ENE visible
19 Dec - 22:10:53 10° WNW 22:20:12 56° N 22:29:15 10° E visible
20 Dec - 00:16:09 10° WNW 00:25:30 83° SSW 00:34:40 10° SE night (unlit)
20 Dec - 02:21:54 10° WNW 02:29:12 27° SW 02:36:28 10° S night (unlit)
20 Dec - 15:34:08 10° SSE 15:40:29 19° SE 15:46:42 10° E daylight
20 Dec - 17:34:14 10° SW 17:43:59 66° SE 17:53:24 10° ENE visible
20 Dec - 19:39:18 10° W 19:48:58 63° NNW 19:58:18 10° ENE visible
20 Dec - 21:45:37 10° WNW 21:54:57 55° N 22:03:59 10° E visible
20 Dec - 23:50:56 10° WNW 00:00:21 88° SSW 00:09:32 10° ESE night (unlit)
21 Dec - 01:56:32 10° WNW 02:04:09 30° SW 02:11:45 10° S night (unlit)
21 Dec - 15:09:42 10° SSE 15:15:26 17° SE 15:21:03 10° E daylight
21 Dec - 17:09:08 10° SW 17:18:50 61° SE 17:28:13 10° ENE visible
21 Dec - 19:13:59 10° W 19:23:44 65° NNW 19:33:07 10° ENE visible
21 Dec - 21:20:20 10° WNW 21:29:42 54° N 21:38:44 10° E visible
21 Dec - 23:25:44 10° WNW 23:35:11 88° NNE 23:44:23 10° ESE night (unlit)
